Orbcomm FM118

operational
NORAD ID: 41183 Int'l Des: 2015-081 Owner: ORBC Country: US Constellation: orbcomm
LEOCIRCULAR

About Orbcomm FM118

Description loading...

Live Position

Loading 3D Globe...

Upcoming Passes

Altitude History

Altitude vs Time

uPlot chart will show altitude changes over time

Two-Line Element Set

1 41183U 15081E 26062.59636075 .00001228 00000-0 29689-3 0 9999
2 41183 47.0033 140.9629 0003884 264.1090 95.9353 14.58716363542315
Epoch: Mar 3, 2026 • Age: 41 hours

Current Status

Altitude 697.5 km
Velocity 7.51 km/s
Sub-Earth Point 10.83°N, 93.3°E
Launch Date Dec 22, 2015
Age 10.1 years
Type other

Technical Details

Classification Payload
Mass 172.00 kg
Dry Mass 158.00 kg
Total Mass 172.00 kg
Length 1.00 m
Diameter 0.50 m
Span 13.00 m
Shape Box+pan+ant
Manufacturer SNVL
Bus Type SN-100A
Phase Status In Orbit
Owner/State ORBC/US

Large Constellations

Loading constellations...